Dewpoint
60 61 61 61 62 62 62 61 62 62 61 61 61 58 58 58 58 57 60 60 60 60 62 60 60 60 60 61 60 57 51 25 24 19 15 18 38 54 52 55 57 58 57 47 28 26 24 22 20 19 11 12 20 22 26 11 26 31 25 23 15 19 13 16 9 16 20 22 24 25 26 25 24 24 25 21 20 23 24 23 23 21 19 16 16 21 21 20
60 61 61 61 61 62 62 62 62 60 59 58 58 58 58 58 58 60 58 58 60 61 61 60 59 58 60 60 60 57 36 26 22 19 18 33 55 55 56 58 58 58 52 28 28 31 23 20 25 18 10 12 21 20 19 16 18 20 21 16 13 19 13 13 9 8 17 19 24 25 24 23 22 22 22 20 21 22 22 23 23 20 20 16 21 21 19 17
60 60 60 60 61 61 61 62 62 60 59 58 58 58 59 58 57 58 60 59 60 60 60 59 58 59 58 59 57 56 31 21 12 11 14 52 52 56 57 57 57 57 37 27 34 32 29 28 28 18 15 14 13 19 18 14 22 20 9 14 19 24 13 7 9 11 13 16 23 23 21 22 20 21 17 20 20 21 19 20 17 20 18 16 19 20 18 15
59 60 60 60 61 61 62 61 61 61 59 58 58 59 59 58 58 58 57 59 59 60 59 59 58 58 58 57 56 49 27 20 17 13 15 50 55 55 55 55 56 55 44 39 38 37 35 31 22 17 21 18 21 17 10 14 14 21 20 17 17 18 8 9 11 10 11 16 19 20 18 19 17 19 19 21 15 16 17 20 17 16 17 17 18 20 17 15
59 59 60 60 60 61 61 61 61 61 61 57 58 59 58 57 57 57 57 57 58 59 59 59 58 58 57 58 55 28 20 7 17 18 17 53 54 53 53 54 54 44 34 31 37 33 27 24 21 20 20 13 25 18 12 8 9 21 13 18 14 8 7 10 11 12 12 12 15 16 15 16 18 15 19 14 14 12 18 18 20 18 15 15 16 19 17 15
59 59 59 60 60 60 61 61 59 60 62 61 59 59 58 57 57 58 57 56 57 59 59 57 57 56 57 55 40 36 24 3 23 14 43 51 52 51 51 53 57 45 41 25 26 24 13 12 14 18 17 11 9 11 10 10 11 11 15 5 6 5 7 10 11 11 9 10 14 16 17 15 18 16 18 15 15 15 24 24 25 21 19 16 15 18 17 15
59 58 58 59 60 59 60 60 61 61 61 60 60 58 57 57 58 58 58 57 57 58 59 57 57 56 55 51 43 28 24 24 14 18 46 49 50 47 48 48 49 34 26 19 17 16 16 11 14 22 23 22 19 9 15 19 26 20 15 6 6 10 8 11 10 12 9 9 11 14 14 11 16 14 18 16 15 18 22 28 30 30 30 20 15 17 17 16
59 59 58 59 58 59 59 59 59 60 59 59 58 57 57 57 58 59 58 58 57 58 59 57 57 55 53 39 31 27 18 13 12 23 42 47 29 28 34 27 18 23 18 18 18 17 15 11 7 25 22 17 21 18 26 15 25 19 15 11 6 9 10 10 10 10 10 9 10 11 9 7 12 10 10 7 7 9 11 18 24 29 20 17 15 17 18 17
59 58 58 57 57 58 58 59 58 57 58 57 58 59 58 58 59 59 59 57 58 58 59 57 58 56 53 34 25 18 19 14 17 16 24 18 20 22 21 16 17 18 18 19 20 19 14 17 15 12 14 17 20 25 24 14 13 24 17 10 6 7 9 9 10 10 11 10 11 8 8 9 9 12 9 9 9 9 9 9 14 27 20 14 14 15 16 16
59 58 57 57 57 57 57 58 57 57 57 57 60 61 60 57 58 58 58 59 58 59 59 57 57 56 39 29 28 16 22 16 14 19 20 19 22 22 20 21 15 17 17 17 18 19 15 14 15 17 17 18 23 22 26 24 21 25 22 16 6 6 8 10 6 8 11 11 9 7 8 8 9 9 8 13 11 18 12 11 13 24 23 22 16 16 16 15
59 58 56 57 57 57 58 57 57 57 59 60 60 61 60 58 58 58 57 58 58 58 58 55 57 40 28 27 20 15 18 16 20 20 20 22 21 21 20 20 17 16 19 17 18 19 20 18 20 23 31 22 22 19 24 26 24 20 19 20 18 17 9 8 8 6 9 8 9 8 7 10 10 13 10 9 12 14 10 11 11 15 20 21 21 20 20 17
58 57 56 57 58 58 58 58 57 57 58 58 59 60 59 58 57 58 59 58 57 58 57 55 54 35 27 23 22 18 17 15 22 22 21 23 21 21 24 24 17 17 19 16 18 20 21 23 29 30 21 25 18 20 19 26 19 16 17 9 17 18 11 7 6 7 8 7 11 10 13 14 14 11 11 10 13 13 11 11 11 11 13 18 19 19 20 20
59 57 56 57 57 57 57 57 56 56 56 59 60 58 58 57 57 56 57 56 53 54 57 56 50 38 34 28 15 14 17 19 23 21 20 23 21 21 21 20 17 17 20 19 19 21 30 29 25 24 30 28 25 15 23 18 16 22 20 16 17 22 18 18 9 9 8 8 15 17 7 14 11 10 10 11 14 11 10 10 10 11 12 15 16 15 17 19
58 57 56 57 57 57 57 56 55 55 56 56 57 57 57 57 57 56 56 56 55 56 56 55 41 35 23 19 22 17 24 23 18 17 17 23 19 18 19 20 20 17 22 15 17 21 22 31 23 25 34 27 23 29 20 20 22 12 20 24 14 13 15 18 10 9 9 12 17 18 8 9 10 10 12 14 13 11 10 10 10 12 10 14 16 14 15 17
57 57 57 57 57 58 58 56 55 54 54 55 55 56 56 56 56 56 56 54 53 54 55 53 37 32 25 22 19 18 50 21 17 16 17 20 19 17 18 20 19 19 18 16 14 17 20 29 26 23 19 27 29 25 26 22 24 20 16 16 20 13 18 20 23 9 10 12 20 19 10 12 10 12 15 14 15 11 9 10 10 11 12 14 13 13 14 15
57 57 57 57 56 56 56 55 54 54 54 54 55 55 56 56 56 56 55 55 55 55 46 38 36 29 24 21 13 32 20 15 15 17 18 22 21 19 20 20 20 17 16 16 16 16 25 30 23 24 23 23 28 24 21 21 19 23 14 12 11 15 17 13 18 16 14 16 19 16 13 15 11 12 15 15 11 10 9 11 11 12 12 13 14 15 15 15
57 57 58 57 56 56 55 55 54 54 54 54 55 55 55 56 57 57 55 54 49 48 37 28 32 34 21 26 15 14 14 15 18 18 17 21 22 22 21 19 17 17 17 14 15 16 16 14 21 25 28 20 28 22 11 16 15 14 19 13 19 9 12 11 18 23 21 18 16 20 13 13 12 15 14 14 13 10 10 11 12 14 14 15 16 15 16 17
56 57 57 56 55 55 55 54 54 54 54 54 54 54 51 54 56 49 45 47 48 45 43 39 36 22 20 19 11 12 15 17 18 17 18 19 23 22 21 20 19 17 18 14 14 12 16 16 22 18 21 24 22 18 6 7 9 7 11 12 14 15 14 12 10 17 18 22 17 19 15 14 14 13 14 9 12 9 9 11 15 17 18 18 17 17 17 17
56 57 56 56 55 55 54 54 54 54 54 55 53 57 55 54 47 39 39 39 40 34 21 24 26 15 14 26 24 17 18 18 19 18 17 22 23 24 22 21 18 17 22 18 20 13 20 24 26 20 17 19 16 18 16 16 18 14 15 13 14 8 10 8 18 24 19 14 17 17 15 14 12 13 13 9 10 9 12 16 17 17 18 19 19 18 19 20
58 57 56 55 55 54 54 54 54 53 54 51 47 44 38 32 39 34 39 32 29 34 32 28 32 31 23 16 16 17 20 18 15 16 19 23 23 22 19 20 27 23 23 21 25 19 26 14 13 13 20 22 24 22 19 18 21 20 20 16 15 15 16 20 22 25 22 16 15 15 16 16 15 13 14 10 10 13 15 15 15 16 17 19 20 21 22 22
56 57 55 55 54 55 54 53 53 53 55 48 45 36 20 22 23 21 27 30 29 33 30 32 29 20 14 15 19 19 16 15 16 15 19 21 25 22 22 22 26 22 23 28 19 31 26 14 17 20 19 26 20 24 21 20 20 13 14 15 13 18 12 17 20 23 24 15 17 18 15 14 14 15 15 12 13 14 15 15 16 16 17 17 17 18 18 18
56 55 55 55 54 54 54 54 53 54 55 46 43 34 37 36 32 32 22 16 27 35 33 31 29 24 23 21 20 21 17 15 16 17 19 21 23 14 22 23 21 13 25 25 22 24 21 18 25 25 28 26 23 23 22 16 18 18 14 15 11 15 18 19 21 23 24 18 16 17 12 14 15 15 17 13 14 15 16 16 16 16 16 16 16 17 17 17
56 55 54 55 54 54 54 54 54 54 45 44 41 40 39 43 46 45 32 21 26 34 33 29 23 23 21 21 24 23 19 18 18 19 18 22 20 20 25 23 22 26 26 28 21 20 15 21 27 26 24 20 21 22 19 19 19 10 12 10 11 18 12 14 21 21 21 16 14 15 13 17 17 16 17 18 16 17 19 19 18 18 15 15 16 17 18 18
55 55 54 54 54 54 53 54 53 40 41 43 43 41 44 45 46 43 35 22 24 29 34 32 25 26 23 19 23 24 14 21 20 16 21 20 19 24 27 22 20 24 20 26 25 20 18 21 20 22 24 20 19 21 19 17 13 21 18 15 14 15 16 15 15 20 21 19 20 16 13 12 14 15 15 16 18 18 20 19 19 20 21 20 20 19 19 17
55 55 55 54 54 54 53 52 43 42 39 42 41 43 45 45 46 44 24 23 24 33 35 38 29 25 21 25 28 21 24 26 23 21 24 21 23 34 27 31 19 13 26 27 21 19 18 24 25 23 22 21 17 16 19 17 13 17 19 18 16 18 17 16 17 13 10 9 18 15 8 8 13 14 15 16 16 15 16 16 16 16 17 18 17 17 17 19
53 54 54 55 54 53 52 37 26 45 39 32 42 45 44 44 45 43 28 22 15 29 31 32 21 23 22 29 21 27 28 27 24 18 28 21 29 27 29 26 20 14 25 20 19 19 20 23 25 22 22 22 21 16 18 19 15 9 15 21 19 16 14 15 14 11 6 3 12 17 4 3 12 12 14 15 15 14 14 15 16 17 17 17 16 15 15 14
52 52 53 55 55 52 25 25 27 43 25 39 45 45 44 44 45 43 25 25 14 23 21 34 27 27 25 26 23 29 10 16 22 27 18 25 27 35 18 21 27 29 28 24 19 7 23 20 20 21 20 21 18 13 18 19 14 13 17 19 15 14 14 13 13 9 11 18 18 18 10 4 4 10 14 16 14 13 14 16 17 18 17 17 16 16 15 15
52 52 53 55 55 48 22 33 36 36 26 39 45 44 44 44 46 36 20 2 5 28 18 24 33 34 24 28 28 25 21 28 19 27 21 27 30 31 22 19 20 21 27 14 2 19 23 20 20 18 20 17 12 15 16 19 11 16 18 19 16 15 15 17 12 12 15 10 11 12 17 8 6 11 15 15 11 12 14 15 17 18 18 18 17 17 16 16
53 52 52 54 55 51 44 39 38 33 43 44 43 44 46 47 38 29 25 4 14 26 27 31 35 29 32 30 30 29 24 30 19 24 31 29 29 28 18 27 28 25 25 17 14 17 25 19 21 20 16 13 19 17 15 17 11 16 21 21 21 19 18 16 12 12 10 7 5 10 14 4 7 13 13 14 11 12 14 16 17 18 18 18 18 18 16 15
54 53 53 53 51 43 41 45 39 38 44 44 44 44 46 40 32 26 14 4 27 10 30 27 27 25 31 24 26 29 24 27 27 29 29 26 25 29 27 34 29 23 19 25 21 20 24 30 28 20 18 17 17 14 19 20 17 21 20 16 19 16 16 15 14 10 6 1 9 12 16 7 3 11 12 12 13 14 15 17 18 19 19 19 19 18 17 15
56 54 53 52 40 40 42 35 38 45 45 44 45 46 39 31 18 21 6 14 28 24 28 24 21 31 25 22 20 26 25 26 28 26 22 26 22 27 25 23 24 21 20 19 18 22 23 24 18 20 27 25 16 17 23 23 20 15 14 12 8 10 12 12 10 9 1 0 7 11 11 9 3 7 13 15 16 17 17 17 17 18 18 19 19 19 17 16
54 53 52 46 44 41 22 24 30 45 43 44 45 38 27 14 28 9 3 26 12 19 19 19 23 25 23 26 18 19 18 21 26 23 20 20 19 18 18 11 17 7 12 11 10 18 19 20 22 24 29 19 20 15 17 22 20 19 14 11 3 3 1 -5 1 -3 -1 2 5 8 13 8 8 9 15 16 16 17 17 18 17 18 18 19 19 19 19 19
54 53 50 47 46 38 41 36 45 44 44 45 38 30 20 21 0 15 14 19 8 19 16 21 20 24 23 20 18 20 23 18 21 23 22 23 20 19 22 18 20 7 2 12 9 11 13 19 21 22 22 25 17 7 7 7 12 12 9 8 3 -4 -7 -7 -2 -1 -1 7 10 7 7 5 8 12 15 15 17 17 17 18 18 18 19 19 19 19 19 19
53 52 39 43 43 41 41 44 45 45 43 39 30 23 22 10 1 22 10 17 15 24 26 24 23 23 20 11 17 20 10 14 19 17 21 17 19 14 17 18 20 18 14 15 8 7 1 7 11 20 17 21 19 9 9 9 10 11 14 7 6 2 -4 -4 -6 -4 -1 5 7 11 3 2 6 11 15 15 17 17 18 18 18 19 20 20 19 19 19 17
52 46 42 44 44 45 44 44 44 44 39 33 24 21 5 2 8 6 7 16 19 21 19 23 21 16 16 19 18 19 9 8 18 16 16 16 11 15 15 11 18 20 19 8 11 6 9 7 12 21 19 18 19 21 18 15 11 14 13 14 6 3 11 1 0 -1 -1 2 2 2 3 7 11 17 18 17 16 17 18 18 19 18 19 20 19 17 17 17
49 46 47 41 42 41 45 46 43 42 35 27 23 17 10 10 2 12 14 23 21 17 18 21 17 15 13 17 19 12 18 8 17 13 10 16 17 14 18 19 16 19 8 4 7 5 12 3 17 20 19 11 15 17 19 16 4 7 7 3 5 15 8 1 9 11 7 2 2 1 10 11 12 13 14 14 15 15 16 16 16 16 17 16 17 17 15 15
41 39 32 38 37 38 42 44 43 41 32 25 21 11 15 15 13 19 32 18 19 18 19 9 12 5 7 7 11 14 12 16 15 8 4 15 10 18 19 21 19 19 15 10 12 11 4 6 16 16 14 17 16 19 19 18 15 10 4 7 16 15 12 8 -0 -2 -6 -2 1 6 6 6 7 5 13 13 14 14 14 14 14 14 14 14 15 15 14 13
41 37 34 40 34 40 44 44 41 36 32 27 18 26 25 16 26 26 28 25 21 22 15 13 10 13 7 9 13 11 16 7 12 14 9 16 11 20 20 19 20 16 19 21 6 12 10 6 9 13 15 19 19 17 14 18 19 11 8 15 7 0 5 8 2 -3 -2 -3 0 4 4 5 9 10 11 11 13 13 13 13 13 12 12 13 14 14 13 12
37 37 32 34 39 42 42 42 37 34 28 22 18 20 23 24 26 23 26 27 23 22 13 15 7 14 13 12 13 16 15 11 13 11 6 11 8 19 17 19 20 22 22 19 14 16 14 2 9 13 13 14 10 13 8 13 15 18 17 10 14 7 3 -0 3 1 3 2 -1 2 -1 6 10 11 13 12 12 13 11 11 11 12 11 12 13 12 12 13
27 21 26 37 41 42 42 40 28 23 21 15 13 18 24 24 26 27 28 28 21 17 15 15 20 13 19 17 15 13 17 15 14 12 14 14 11 21 16 22 17 21 22 22 13 18 12 9 3 9 15 13 9 11 9 9 5 7 8 7 8 4 11 10 4 4 5 -2 -2 -1 2 1 13 14 14 14 12 11 10 9 10 10 11 12 13 12 13 14
34 28 28 38 40 43 40 28 19 19 19 19 23 22 29 23 29 29 30 31 30 26 19 21 20 14 19 17 16 21 15 16 16 12 15 14 11 8 21 19 24 18 20 17 15 14 7 10 6 10 7 7 7 12 10 11 12 12 13 8 12 5 4 1 6 2 3 3 5 1 6 6 14 15 14 13 13 11 10 9 9 10 10 12 12 12 13 16
29 19 24 33 40 38 32 23 17 21 21 15 14 28 27 35 25 25 28 28 27 23 26 24 24 20 22 21 19 18 17 14 16 14 16 10 17 11 19 23 26 24 12 10 10 14 11 12 8 7 8 9 8 10 14 14 14 14 10 8 14 8 7 3 1 5 4 5 5 8 5 6 14 16 15 14 12 10 10 9 9 10 10 11 13 13 15 16
27 19 33 38 42 36 27 19 26 24 18 21 28 29 30 29 24 25 26 26 25 26 24 24 24 17 19 17 18 15 18 12 17 11 16 17 19 17 23 24 25 20 17 15 13 17 22 5 2 8 10 11 12 13 13 14 16 11 11 12 9 7 6 8 5 2 5 3 7 10 5 7 14 17 16 15 12 11 11 10 10 11 11 11 12 13 15 16
29 28 23 34 38 33 20 5 10 13 19 25 28 27 30 29 27 26 26 26 24 21 21 21 23 21 18 22 19 15 18 6 15 13 11 15 12 27 25 25 25 21 16 16 9 17 6 11 7 2 3 8 7 9 10 14 12 10 10 13 13 8 7 3 4 2 4 3 9 5 3 -3 15 16 14 14 13 10 10 10 11 11 10 10 12 14 16 15
27 28 29 31 30 29 19 22 19 16 20 21 22 19 21 24 28 27 26 26 25 21 20 21 22 22 19 22 20 22 23 15 11 17 11 12 13 25 25 25 26 18 24 24 30 25 7 11 6 2 -0 1 1 1 4 6 7 13 13 13 12 6 5 5 6 5 4 5 7 0 1 8 16 16 14 12 11 9 9 10 11 11 9 11 15 16 14 13
19 5 18 24 25 26 27 26 24 21 16 15 13 18 21 18 24 27 27 26 25 25 20 22 22 19 21 21 21 22 22 22 15 11 12 13 14 21 25 24 23 24 29 31 28 16 7 11 11 9 8 7 10 10 12 18 14 9 10 10 10 11 6 5 6 3 6 1 4 5 7 10 14 14 13 12 11 8 9 10 10 10 8 11 15 14 13 11
21 15 13 14 23 24 22 25 26 22 17 22 13 16 12 19 20 23 29 22 25 24 25 22 23 16 18 20 20 19 20 20 21 16 12 11 12 16 23 25 25 26 30 27 25 12 6 5 10 11 11 12 12 11 13 17 14 13 10 10 9 9 8 6 6 8 8 2 7 8 11 6 10 12 11 10 10 9 10 10 10 10 8 10 14 13 16 8
12 16 17 13 16 9 19 18 27 26 26 20 15 20 18 20 20 12 20 25 25 24 18 21 23 23 21 20 19 10 17 19 19 12 11 9 12 15 15 22 23 27 23 17 15 11 7 6 7 9 8 11 14 14 13 13 13 12 12 11 10 10 8 6 4 8 10 4 8 9 11 9 11 11 10 10 10 9 10 11 11 10 9 11 12 10 9 7
21 23 19 27 14 20 14 18 28 26 25 22 23 20 16 20 18 18 16 20 23 23 20 10 17 22 23 23 18 12 19 7 10 13 10 9 9 12 11 13 21 23 19 14 13 9 8 5 5 8 12 13 12 12 13 13 14 12 10 13 13 11 8 8 8 9 10 8 11 11 11 10 12 11 9 9 11 11 11 11 11 11 10 11 10 9 8 7
14 21 12 26 24 21 21 22 25 24 19 24 14 21 21 21 21 22 22 19 14 19 23 18 19 24 24 22 21 14 17 18 15 13 14 13 15 12 10 12 11 16 16 14 13 13 8 7 14 8 6 10 11 13 11 14 12 11 13 13 13 12 12 11 10 10 9 5 8 10 9 9 12 11 9 10 10 11 11 11 11 11 10 10 9 8 7 6
29 27 26 24 19 21 22 22 21 21 18 17 17 18 25 24 22 23 21 25 18 18 24 21 24 24 23 22 22 21 23 23 23 22 21 20 15 18 10 11 17 14 13 11 10 10 6 9 5 4 6 8 10 12 12 12 11 10 11 12 12 11 7 9 5 10 8 5 9 6 6 9 13 10 10 10 10 11 11 11 12 11 10 9 8 7 5 4
30 32 30 28 19 20 18 20 23 18 13 17 21 22 19 20 24 25 16 25 27 27 26 23 23 23 22 20 20 23 26 24 24 24 23 22 21 21 20 18 18 15 11 11 12 10 7 6 7 4 5 3 8 11 11 11 4 3 4 11 13 11 11 11 12 12 11 11 7 5 9 12 11 11 10 10 10 11 12 12 11 11 9 9 6 3 3 3